Probability
0 0 0 0 0 0 0 0 0 0 0 0 0 0 0 0 0 0 0 0 0 0 0 0 0 0 0 0 0 0 0 0 0 0 0 0 0 0 0 0 0 0 0
0 0 0 0 0 0 0 0 0 0 0 0 0 0 0 0 0 0 0 0 0 0 0 0 0 0 0 0 0 0 0 0 0 0 0 0 0 0 0 0 0 0 0
0 0 0 0 0 0 0 0 0 0 0 0 0 0 0 0 0 0 0 0 0 0 0 0 0 0 0 0 0 0 0 0 0 0 0 0 0 0 0 0 0 0 0
0 0 0 0 0 0 0 0 0 0 0 0 0 0 0 0 0 0 0 0 0 0 0 0 0 0 0 0 0 0 0 0 0 0 0 0 0 0 0 0 0 0 0
0 0 0 0 0 0 0 0 0 0 0 0 0 0 0 0 0 0 0 0 0 0 0 0 0 0 0 0 0 0 0 0 0 0 0 0 0 0 0 0 0 0 0
0 0 0 0 0 0 0 0 0 0 0 0 0 0 0 0 0 0 0 0 0 0 0 0 0 0 0 0 0 0 0 0 0 0 0 0 0 0 0 0 0 0 0
0 0 0 0 0 0 0 0 0 0 0 0 0 0 0 0 0 0 0 0 0 0 0 0 0 0 0 0 0 0 0 0 0 0 0 0 0 0 0 0 0 0 0
0 0 0 0 0 0 0 0 0 0 0 0 0 0 0 0 0 0 0 0 0 0 0 0 0 0 0 0 0 0 0 0 0 0 0 0 0 0 0 0 0 0 0
0 0 0 0 0 0 0 0 0 0 0 0 0 0 0 0 0 0 0 0 0 0 0 0 0 0 0 0 0 0 0 0 0 0 0 0 0 0 0 0 0 0 0
0 0 0 0 0 0 0 0 0 0 0 0 0 0 0 0 0 0 0 0 0 0 0 0 0 0 0 0 0 0 0 0 0 0 0 0 0 0 0 0 0 0 0
0 0 0 0 0 0 0 0 0 0 0 0 0 0 0 0 0 0 0 0 0 0 0 0 0 0 0 0 0 0 0 0 0 0 0 0 0 0 0 0 0 0 0
0 0 0 0 0 0 0 0 0 0 0 0 0 0 0 0 0 0 0 0 0 0 0 0 0 0 0 0 0 0 0 0 0 0 0 0 0 0 0 0 0 0 0
0 0 0 0 0 0 0 0 0 0 0 0 0 0 0 0 0 0 0 0 0 0 0 0 0 0 0 0 0 0 0 0 0 0 0 0 0 0 0 0 0 0 0
0 0 0 0 0 0 0 0 0 0 0 0 0 0 0 0 0 0 0 0 0 0 0 0 0 0 0 0 0 0 0 0 0 0 0 0 0 0 0 0 0 0 0
0 0 0 0 0 0 0 0 0 0 0 0 0 0 0 0 0 0 0 0 0 0 0 0 0 0 0 0 0 0 0 0 0 0 0 0 0 0 0 0 0 0 0
0 0 0 0 0 0 0 0 0 0 0 0 0 0 0 0 0 0 0 0 0 0 0 0 0 0 0 0 0 0 0 0 0 0 0 0 0 0 0 0 0 0 0
0 0 0 0 0 0 0 0 0 0 0 0 0 0 0 0 0 0 0 0 0 0 0 0 0 0 0 0 0 0 0 0 0 0 0 0 0 0 0 0 0 0 0
0 0 0 0 0 0 0 0 0 0 0 0 0 0 0 0 0 0 0 0 0 0 0 0 0 0 0 0 0 0 0 0 0 0 0 0 0 0 0 0 0 0 0
0 0 0 0 0 0 0 0 0 0 0 0 0 0 0 0 0 0 0 0 0 0 0 0 0 0 0 0 0 0 0 0 0 0 0 0 0 0 0 0 0 0 0
0 0 0 0 0 0 0 0 0 0 0 0 0 0 0 0 0 0 0 0 0 0 0 0 0 0 0 0 0 0 0 0 0 0 0 0 0 0 0 0 0 0 0
0 0 0 0 0 0 0 0 0 0 0 0 0 0 0 0 0 0 0 0 0 0 0 0 0 0 0 0 0 0 0 0 0 0 0 0 0 0 0 0 0 0 0
0 0 0 0 0 0 0 0 0 0 0 0 0 0 0 0 0 0 0 0 0 0 0 0 0 0 0 0 0 0 0 0 0 0 0 0 0 0 0 0 0 0 0
0 0 0 0 0 0 0 0 0 0 0 0 0 0 0 0 0 0 0 0 0 0 0 0 0 0 0 0 0 0 0 0 0 0 0 0 0 0 0 0 0 0 0
0 0 0 0 0 0 0 0 0 0 0 0 0 0 0 0 0 0 0 0 0 0 0 0 0 0 0 0 0 0 0 0 0 0 0 0 0 0 0 0 0 0 0
0 0 0 0 0 0 0 0 0 0 0 0 0 0 0 0 0 0 0 0 0 0 0 0 0 0 0 0 0 0 0 0 0 0 0 0 0 0 0 0 0 0 0
0 0 0 0 0 0 0 0 0 0 0 0 0 0 0 0 0 0 0 0 0 0 0 0 0 0 0 0 0 0 0 0 0 0 0 0 0 0 0 0 0 0 0
Wind_Speed
5 5 4 3 3 1 2 4 5 6 7 8 8 6 4 3 1 0 1 1 3 2 2 3 4 4 3 2 3 3 2 3 3 2 3 4 5 5 4 4 5 5 6
6 5 5 4 3 3 3 5 5 6 6 6 6 6 5 4 4 4 3 3 4 4 4 5 6 6 5 4 4 4 3 2 4 4 4 5 5 4 4 4 4 5 5
6 6 5 5 5 5 5 5 5 5 6 6 6 6 6 5 6 6 6 6 6 6 7 7 6 7 7 5 6 5 4 5 5 5 3 2 2 3 3 4 4 4 5
6 6 6 7 6 6 5 5 5 5 5 6 5 5 5 5 5 6 8 7 7 7 7 7 6 6 6 6 6 6 7 7 6 5 3 3 3 3 3 4 4 3 3
6 7 7 7 6 6 5 5 4 4 4 4 3 4 5 4 4 7 7 7 8 9 9 9 8 9 10 7 6 6 7 6 5 4 3 4 4 4 4 3 3 3 3
7 7 7 7 6 6 6 5 3 3 2 0 3 4 4 3 5 9 7 7 8 9 8 7 7 8 10 13 13 11 8 6 5 4 3 3 3 3 3 3 3 4 4
7 7 8 8 7 7 6 5 4 2 2 3 3 4 4 4 7 10 10 7 7 7 7 7 7 8 9 9 11 12 11 10 6 4 3 2 2 2 3 4 4 2 1
6 7 8 8 8 7 6 6 5 4 4 4 3 4 5 6 11 12 12 9 8 7 7 7 8 7 7 8 8 8 7 7 6 3 3 2 2 0 1 1 0 1 2
6 6 7 9 9 8 8 7 5 5 4 4 4 5 6 5 11 12 10 7 7 6 5 6 8 8 11 13 10 8 9 7 9 13 11 10 9 8 5 5 5 4 3
12 10 7 8 10 10 9 7 5 5 5 6 5 4 6 5 9 12 11 6 6 5 5 6 9 10 12 12 9 9 9 6 6 9 9 9 7 7 9 5 3 3 2
10 13 11 8 10 10 8 6 6 6 6 6 6 4 4 5 7 10 12 6 7 6 4 3 4 11 12 12 10 7 6 5 6 7 6 6 5 6 6 5 4 3 3
7 10 13 11 9 9 8 7 7 8 8 7 5 4 2 3 4 7 13 11 9 7 5 3 3 9 11 10 8 10 11 8 5 5 5 4 4 4 4 5 6 5 3
5 7 10 13 10 8 9 10 8 8 8 6 6 5 4 3 3 6 12 15 12 6 5 8 7 8 8 6 8 10 8 6 5 5 4 3 2 2 3 4 6 6 6
5 6 7 10 10 9 8 9 9 9 9 8 7 7 5 4 3 3 5 8 9 7 5 6 6 4 4 4 5 5 4 4 4 4 2 2 3 4 4 4 4 4 5
6 6 7 8 10 9 10 10 12 11 12 11 9 9 9 7 8 12 10 7 6 6 6 3 2 2 2 2 3 3 3 4 4 3 3 4 4 4 3 3 3 3 4
5 6 6 6 7 8 9 8 11 11 16 17 15 13 10 12 16 16 15 15 14 13 7 3 2 2 3 4 4 2 2 3 3 3 3 3 3 3 2 3 3 3 3
7 6 6 7 7 8 8 10 8 6 11 15 16 17 14 16 19 18 16 15 14 13 5 3 3 4 4 4 5 4 3 3 3 3 3 3 3 2 2 2 3 3 3
8 8 9 7 7 7 8 10 10 11 9 7 8 13 15 18 20 18 16 11 6 5 3 4 4 4 4 5 6 5 4 4 3 3 3 2 3 2 1 1 1 2 2
7 6 6 7 7 7 7 9 9 11 10 8 5 4 10 14 15 17 16 6 7 6 4 4 4 4 4 6 7 6 5 5 4 4 3 3 3 3 2 1 1 3 3
7 12 10 6 7 6 6 7 8 9 9 8 8 7 8 7 6 8 6 5 6 6 6 5 5 5 5 6 7 6 5 4 5 4 4 4 3 2 3 3 3 3 3
7 8 12 8 7 6 6 8 9 10 10 9 9 10 16 12 12 12 9 6 7 7 6 6 5 5 6 6 7 7 7 5 5 5 4 4 3 3 3 3 4 4 3
6 6 6 7 6 6 7 8 9 10 11 11 8 9 15 9 9 9 9 8 7 6 6 5 5 5 7 8 8 7 6 6 5 5 5 5 4 4 4 3 4 4 3
7 7 8 8 7 8 9 9 10 11 10 10 10 10 10 7 8 9 9 8 6 6 5 5 5 5 5 6 7 8 8 8 7 7 7 6 6 5 4 4 5 5 4
7 8 8 8 7 8 10 10 11 11 11 10 10 10 11 10 8 9 8 6 6 6 5 5 6 8 10 7 6 6 6 7 8 8 12 10 9 7 5 5 5 6 5
6 7 7 8 7 8 10 11 11 11 11 10 10 10 10 9 8 8 7 7 7 7 8 7 6 8 11 12 9 7 9 11 10 10 10 10 10 9 7 6 5 5 4
5 6 6 5 5 8 9 9 10 10 10 10 10 9 10 10 9 8 7 6 7 7 7 7 9 11 11 10 11 11 11 12 13 14 10 9 10 9 8 6 7 7 6
Wind_Direction
191 184 178 181 184 227 293 306 313 319 334 347 351 357 354 345 337 170 199 171 139 107 91 123 123 117 120 129 121 123 125 119 117 33 14 10 25 17 11 20 26 23 2
204 193 194 190 192 223 264 287 303 316 328 342 352 359 9 27 40 56 64 73 86 94 101 100 105 109 98 90 87 89 93 104 112 92 40 20 16 8 17 29 27 25 9
204 194 192 193 202 224 248 272 296 310 325 342 354 5 18 35 47 58 77 86 91 95 100 102 104 102 91 85 83 82 80 80 91 99 68 9 5 4 3 15 34 22 20
202 193 192 198 203 217 237 256 277 298 320 336 349 8 22 34 59 78 94 95 93 89 87 86 84 90 95 92 84 82 88 88 85 88 72 22 11 344 18 15 11 4 13
202 197 199 198 199 207 224 240 256 280 303 328 23 37 34 37 75 103 107 103 97 88 78 71 68 76 83 84 86 82 88 91 86 79 62 36 16 12 1 349 4 348 346
204 204 196 193 200 206 211 218 233 263 287 78 112 84 53 48 98 113 117 106 102 94 86 74 66 62 77 78 78 76 84 95 97 88 73 58 21 3 351 6 13 24 355
209 202 191 192 202 206 199 195 198 197 158 137 134 117 90 73 109 121 116 112 106 95 88 81 73 63 71 78 72 66 61 63 81 125 98 70 46 351 10 27 27 31 323
224 203 192 191 201 201 193 189 178 163 157 151 155 130 95 75 98 110 106 98 94 93 98 100 92 70 71 83 71 56 42 33 36 65 111 127 147 168 112 116 139 16 316
287 242 205 193 196 196 194 190 175 159 162 162 162 141 111 92 101 110 109 100 96 87 86 90 95 85 79 81 75 63 46 25 39 60 71 79 81 72 69 57 39 46 8
338 314 270 205 194 198 193 182 166 159 167 162 162 155 135 122 113 118 120 116 108 95 74 70 82 91 83 81 80 74 60 30 38 50 47 39 39 42 50 64 79 80 53
338 339 316 254 206 198 184 172 163 157 157 163 160 160 152 143 127 137 142 135 136 126 111 94 86 98 95 90 87 80 82 83 63 62 52 36 26 24 24 31 44 93 91
341 344 329 289 233 202 179 173 166 163 164 166 157 158 161 153 145 158 163 159 151 139 143 147 136 119 111 102 88 91 89 82 70 62 53 36 24 14 10 27 38 48 64
323 325 320 307 259 210 183 176 168 168 169 168 163 167 175 175 175 169 166 162 154 140 153 162 160 137 108 86 83 92 90 84 78 70 57 28 356 358 20 29 24 31 33
285 293 299 304 275 227 194 179 175 175 174 170 170 173 169 167 168 149 139 147 147 131 136 162 163 134 95 88 79 79 86 104 108 101 83 29 20 32 34 30 30 22 32
258 273 277 282 275 237 206 193 186 187 183 174 178 175 173 179 189 169 155 155 157 154 136 110 96 97 100 86 86 90 91 94 91 87 75 53 38 41 26 18 40 48 49
241 263 268 274 275 245 213 199 201 187 185 182 176 174 186 181 169 171 167 167 166 154 132 132 159 180 171 157 152 144 119 112 118 114 94 80 65 57 30 12 38 55 48
232 252 265 266 274 252 213 189 180 188 190 188 181 179 177 169 169 176 178 175 171 155 138 154 174 195 191 167 161 160 158 148 139 128 115 105 92 81 62 25 23 41 40
236 253 265 261 271 257 218 192 180 175 173 177 189 188 180 171 172 173 164 145 155 167 163 168 183 194 177 161 162 164 158 150 139 143 149 140 124 120 99 46 32 48 55
235 244 256 260 266 256 221 189 177 176 175 162 141 165 184 176 167 163 155 155 168 178 180 179 181 180 174 165 164 166 164 164 157 154 172 183 167 148 141 120 92 83 93
235 247 254 256 260 247 214 184 171 166 160 160 165 158 145 138 153 171 187 177 172 178 180 183 186 180 171 168 166 168 170 171 163 160 178 195 194 167 155 144 129 122 123
231 247 258 260 253 238 207 184 171 166 163 166 172 171 166 170 178 183 187 184 183 183 180 181 184 180 175 172 172 176 179 184 180 173 179 189 184 173 163 148 141 144 146
228 236 245 250 254 233 202 184 171 168 167 166 162 165 173 170 172 179 188 193 191 184 175 173 182 184 181 180 179 179 184 191 192 183 180 178 177 179 170 150 145 154 155
230 238 246 248 246 220 195 180 171 167 166 166 160 156 172 183 177 185 189 190 186 184 179 175 182 191 192 188 181 178 185 195 195 183 174 172 175 179 175 166 163 165 177
229 237 245 248 234 204 182 171 168 166 165 164 163 166 177 187 184 187 188 186 186 189 186 183 188 198 199 197 194 190 194 194 183 180 175 174 177 181 179 172 167 172 183
226 234 247 245 215 183 168 165 166 164 164 167 171 173 177 184 185 187 190 190 188 190 193 193 193 201 204 201 199 203 205 195 185 178 177 177 180 182 180 174 167 166 174
226 244 245 220 185 163 158 159 161 161 162 169 176 177 177 183 188 190 187 186 188 191 193 196 199 199 200 200 202 200 195 191 189 186 182 183 184 186 182 176 172 170 168